{"data":{"norad_id":65754,"intl_designator":"2025-216W","name":"STARLINK-35287","alt_names":[],"object_type":"PAYLOAD","status":"ACTIVE","operator":null,"country":"US","launch_date":"2025-09-25","launch_site_code":"AFETR","launch_vehicle":null,"mission":null,"orbit_class":"UNKNOWN","rcs_meters":null,"size_class":null,"mass_kg":null,"dimensions":null,"purposes":["comms"],"wikipedia_slug":null,"has_3d_model":false,"image_url":null,"decayed_at":null,"tle_current":{"epoch":"2026-09-19T10:13:42.672576Z","epoch_age_seconds":201329,"freshness":"STALE","line1":"1 65754U 25216W   26262.42618834  .00014229  00000+0  43144-3 0  9993","line2":"2 65754  53.1582 151.0112 0001534  57.0265 303.0885 15.34402113 56194","mean_motion":15.34402113,"eccentricity":0.0001534,"inclination_deg":53.1582,"raan_deg":151.0112,"arg_perigee_deg":57.0265,"mean_anomaly_deg":303.0885,"bstar":0.00043144,"rev_number":5619,"period_min":93.847628845125,"perigee_km":461.64757600356,"apogee_km":463.74634386247,"semimajor_km":6840.833959933,"source":"CELESTRAK","updated_at":"2026-09-21T09:00:35.711179Z"}}}